This demonstration page uses our WeatherBlox Daily Observations layout. Learn more.

Left ArrowRight Arrow

38.88101, -77.10428

Hourly Observations for May 7, 2020

Temp ( °F °C ) Dew Point ( °F °C ) Humidity (%) Winds ( mph kmh ) Pressure ( in mb ) Visibility ( mi km ) Precip ( " mm )
12:21 am 00:21 Cloudy with Light Rain 47 8.3 44 6.7 90 90 NNW 12 19 29.87 1012 10 16.0934 0.01 0.254
12:45 am 00:45 Cloudy 47 8.3 44 6.7 90 90 NNW 14 22 29.88 1012 10 16.0934 0.01 0.254
12:52 am 00:52 Cloudy 47 8.3 44 6.7 90 90 NNW 13 20 29.88 1012 10 16.0934 0.01 0.254
1:02 am 01:02 Cloudy with Light Rain 47 8.3 44 6.7 90 90 NNW 14 22 29.88 1012 10 16.0934 0.001 0.001
1:45 am 01:45 Cloudy 47 8.3 43 6.1 86 86 NW 13 20 29.88 1012 10 16.0934 0.001 0.001
1:52 am 01:52 Cloudy 47 8.3 43 6.1 86 86 NNW 12 19 29.88 1012 10 16.0934 0.001 0.001
2:05 am 02:05 Cloudy 47 8.3 43 6.1 86 86 N 9 15 29.88 1012 10 16.0934 0 0
2:39 am 02:39 Cloudy 47 8.3 42 5.6 83 83 NNW 10 17 29.88 1012 10 16.0934 0 0
2:52 am 02:52 Mostly Cloudy 46 7.8 42 5.6 86 86 NNW 10 17 29.87 1012 10 16.0934 0 0
3:52 am 03:52 Mostly Cloudy 46 7.8 41 5 83 83 NW 8 13 29.88 1012 10 16.0934 0 0
4:52 am 04:52 Mostly Cloudy 45 7.2 40 4.4 83 83 NW 8 13 29.88 1012 10 16.0934 0 0
5:52 am 05:52 Mostly Clear 45 7.2 39 3.9 80 80 NNW 6 9 29.88 1012 10 16.0934 0 0
6:52 am 06:52 Sunny 46 7.8 38 3.3 73 73 NW 9 15 29.91 1013 10 16.0934 0 0
7:52 am 07:52 Sunny 49 9.4 37 2.8 64 64 NNW 7 11 29.92 1013 10 16.0934 0 0
8:52 am 08:52 Sunny 52 11.1 37 2.8 57 57 NNW 14 22 29.93 1014 10 16.0934 0 0
9:52 am 09:52 Mostly Sunny 55 12.8 36 2.2 49 49 WNW 9 15 29.93 1014 10 16.0934 0 0
10:52 am 10:52 Mostly Sunny 58 14.4 34 1.1 41 41 NNW 10 17 29.94 1014 10 16.0934 0 0
11:52 am 11:52 Mostly Sunny 61 16.1 30 -1.1 31 31 NNW 9 15 29.93 1014 10 16.0934 0 0
12:52 pm 12:52 Mostly Sunny 62 16.7 28 -2.2 28 28 NNW 10 17 29.92 1013 10 16.0934 0 0
1:52 pm 13:52 Sunny 64 17.8 30 -1.1 28 28 NW 14 22 29.9 1013 10 16.0934 0 0
2:52 pm 14:52 Mostly Sunny 65 18.3 27 -2.8 24 24 WNW 7 11 29.88 1012 10 16.0934 0 0
3:52 pm 15:52 Mostly Sunny 67 19.4 27 -2.8 22 22 VRB 6 9 29.86 1011 10 16.0934 0 0
4:52 pm 16:52 Partly Cloudy 68 20 28 -2.2 22 22 WNW 7 11 29.84 1011 10 16.0934 0 0
5:28 pm 17:28 Partly Cloudy 68 20 28 -2.2 22 22 WNW 14 22 29.84 1010 10 16.0934 0 0
5:42 pm 17:42 Partly Cloudy 68 20 28 -2.2 22 22 W 12 19 29.84 1010 10 16.0934 0 0
5:52 pm 17:52 Partly Cloudy 68 20 26 -3.3 21 21 WNW 16 26 29.84 1011 10 16.0934 0 0
6:52 pm 18:52 Mostly Sunny 68 20 26 -3.3 21 21 W 14 22 29.85 1011 10 16.0934 0 0
7:52 pm 19:52 Mostly Sunny 65 18.3 28 -2.2 25 25 WSW 8 13 29.85 1011 10 16.0934 0 0
8:52 pm 20:52 Partly Cloudy 63 17.2 29 -1.7 28 28 SW 5 7 29.87 1012 10 16.0934 0 0
9:52 pm 21:52 Partly Cloudy 58 14.4 34 1.1 41 41 SW 5 7 29.88 1012 10 16.0934 0 0
10:52 pm 22:52 Partly Cloudy 57 13.9 32 0 39 39 SW 5 7 29.88 1012 10 16.0934 0 0
11:52 pm 23:52 Mostly Clear 57 13.9 31 -0.6 37 37 WSW 7 11 29.89 1012 10 16.0934 0 0

Powered by AerisWeather